Home > Weather > Turin > Past weeks

Flag for Italy Weather for the Past 2 Weeks in Turin, Italy

Now
34 °F

Fog.


Feels Like: 34 °F
Forecast: 35 / 47 °F
Wind: No wind

Location: Torino / Bric Della Croce

Current Time: Feb 13, 2016 at 9:36:13 PM

Latest Report: Feb 13, 2016 at 8:55 PM


Visibility: 0 mi

Pressure: 29.36 "Hg

Humidity: 100%

Dew point: 34 °F

Location of TurinLocation

Historic Weather in Turin — Graph

°F

Turin Temperature Yesterday

Maximum temperature yesterday: 34 °F (at 10:55 AM)
Minimum temperature yesterday: 27 °F (at 11:55 PM)
Average temperature yesterday: 31 °F

High & Low Weather Summary for the Past Weeks

 TemperatureHumidityPressure
High57 °F (Feb 1, 12:55 PM)100% (Jan 30, 2:55 AM)30.42 "Hg (Jan 30, 2:55 AM)
Low27 °F (Feb 12, 11:55 PM)10% (Feb 3, 11:55 PM)29.33 "Hg (Feb 13, 3:55 PM)
Average40 °F70%29.94 "Hg
* Reported Jan 29 7:55 PM — Feb 13 7:55 PM, Turin, Weather by CustomWeather, © 2016

Note: Actual official high and low records may vary slightly from our data, if they occured in-between our weather recording intervals... More about our weather records

Advertising

Turin Weather History for the Previous 24 Hours

 ConditionsComfort  
Time TempWeatherWind HumidityBarometerVisibility
7:55 PM
Sat, Feb 13
36 °FClear.5 mph87%29.33 "Hg10 mi
6:55 PM36 °FClear.3 mph87%29.33 "Hg10 mi
5:55 PM36 °FClear.No wind81%29.33 "Hg10 mi
4:55 PM37 °FSunny.No wind75%29.33 "Hg10 mi
3:55 PM37 °FSunny.5 mph75%29.33 "Hg10 mi
2:55 PM36 °FSunny.6 mph81%29.36 "Hg10 mi
1:55 PM36 °FSunny.5 mph75%29.39 "Hg10 mi
12:55 PM34 °FSunny.No wind93%29.39 "Hg10 mi
11:55 AM32 °FSunny.3 mph75%29.39 "Hg10 mi
10:55 AM30 °FSunny.3 mph93%29.39 "Hg10 mi
9:55 AM30 °FSunny.No wind86%29.39 "Hg10 mi
8:55 AM30 °FSunny.3 mph80%29.39 "Hg10 mi
7:55 AM30 °FSunny.No wind80%29.39 "Hg10 mi
6:55 AM30 °FClear.No wind80%29.39 "Hg10 mi
5:55 AM28 °FClear.2 mph86%29.39 "Hg10 mi
4:55 AM28 °FClear.5 mph93%29.39 "Hg10 mi
3:55 AM28 °FClear.6 mph86%29.39 "Hg10 mi
2:55 AM30 °FClear.No wind80%29.42 "Hg10 mi
1:55 AM28 °FClear.5 mph86%29.42 "Hg10 mi
12:55 AM28 °FClear.5 mph93%29.45 "Hg10 mi
11:55 PM
Fri, Feb 12
27 °FClear.2 mph100%29.45 "Hg10 mi
10:55 PM28 °FIce fog.5 mph100%29.47 "Hg0 mi
9:55 PM28 °FIce fog.3 mph100%29.47 "Hg0 mi
Weather by CustomWeather, © 2016

See weather overviewHow to use our weather pages